Weather History for KBLH - October, 2013

Change the Weather History Date:

Wednesday, October 9, 2013

  Actual Average Record
Temperature  
Mean Temperature 68 °F -  
Max Temperature 75 °F 92 °F 105 °F (1996)
Min Temperature 63 °F 62 °F 50 °F (1970)
Cooling Degree Days 3    
Growing Degree Days 18 (Base 50)    
Moisture  
Dew Point 43 °F    
Average Humidity 41    
Maximum Humidity 52    
Minimum Humidity 30    
Precipitation  
Precipitation 0.00 in - - ()
Sea Level Pressure  
Sea Level Pressure 29.66 in    
Wind  
Wind Speed 16 mph (SSW)    
Max Wind Speed 31 mph    
Max Gust Speed 38 mph    
Visibility 10 miles    
Events      
Averages and records for this station are not official NWS values.
T = Trace of Precipitation, MM = Missing Value Source: NWS Daily Summary

Daily Weather History Graph

Daily Weather History Graph

Search for Another Location

Airport or City:

Trip Planner

Search our weather history database for the weather conditions in past years. The results will help you decide how hot, cold, wet, or windy it might be!

Date:

Astronomy

Oct. 09, 2013 Rise Set
Actual Time 6:39 AM PDT 6:12 PM PDT
Civil Twilight 6:14 AM PDT 6:37 PM PDT
Nautical Twilight 5:45 AM PDT 7:05 PM PDT
Astronomical Twilight 5:16 AM PDT 7:34 PM PDT
Moon 11:27 AM PDT (10/9) 10:02 PM PDT (10/9)
Length of Visible Light 12h 22m
Length of Day
11h 32m
Waxing Crescent, 26% of the Moon is Illuminated
Oct 9
Waxing Crescent
Oct 11
First Quarter
Oct 18
Full
Oct 26
Last Quarter
Nov 3
New

Hourly Weather History & Observations

Time (PDT) Temp. Dew Point Humidity Pressure Visibility Wind Dir Wind Speed Gust Speed Precip Events Conditions
12:52 AM 68.0 °F 44.1 °F 42% 29.62 in 10.0 mi SSE 10.4 mph - N/A   Clear
1:52 AM 69.1 °F 45.0 °F 42% 29.62 in 10.0 mi SSW 13.8 mph 19.6 mph N/A   Clear
2:52 AM 66.0 °F 46.0 °F 48% 29.60 in 9.0 mi South 12.7 mph - N/A   Clear
3:52 AM 64.9 °F 44.1 °F 47% 29.60 in 10.0 mi South 15.0 mph - N/A   Clear
4:52 AM 64.9 °F 44.1 °F 47% 29.60 in 10.0 mi SSW 13.8 mph - N/A   Clear
5:52 AM 63.0 °F 45.0 °F 52% 29.61 in 9.0 mi South 19.6 mph - N/A   Clear
6:52 AM 63.0 °F 45.0 °F 52% 29.64 in 9.0 mi South 16.1 mph - N/A   Clear
7:52 AM 66.0 °F 44.1 °F 45% 29.66 in 10.0 mi SSW 6.9 mph - N/A   Clear
8:52 AM 69.1 °F 44.1 °F 40% 29.68 in 10.0 mi SSW 15.0 mph 23.0 mph N/A   Clear
9:52 AM 71.1 °F 41.0 °F 34% 29.69 in 10.0 mi SSW 15.0 mph 23.0 mph N/A   Clear
10:52 AM 73.0 °F 41.0 °F 31% 29.70 in 9.0 mi SW 31.1 mph 38.0 mph N/A   Clear
11:52 AM 73.9 °F 43.0 °F 33% 29.71 in 10.0 mi SW 23.0 mph 32.2 mph N/A   Clear
12:52 PM 73.9 °F 41.0 °F 30% 29.69 in 10.0 mi SW 25.3 mph 31.1 mph N/A   Clear
1:52 PM 72.0 °F 42.1 °F 34% 29.68 in 10.0 mi WSW 15.0 mph - N/A   Clear
2:52 PM 72.0 °F 41.0 °F 33% 29.67 in 9.0 mi SW 23.0 mph 28.8 mph N/A   Clear
3:52 PM 72.0 °F 41.0 °F 33% 29.66 in 10.0 mi SW 18.4 mph 26.5 mph N/A   Clear
4:52 PM 72.0 °F 42.1 °F 34% 29.65 in 8.0 mi SW 17.3 mph - N/A   Clear
5:52 PM 70.0 °F 43.0 °F 38% 29.65 in 10.0 mi West 17.3 mph - N/A   Partly Cloudy
6:52 PM 68.0 °F 43.0 °F 40% 29.65 in 10.0 mi SSW 13.8 mph - N/A   Clear
7:52 PM 66.0 °F 43.0 °F 43% 29.66 in 10.0 mi SW 25.3 mph 32.2 mph N/A   Clear
8:52 PM 64.0 °F 44.1 °F 48% 29.69 in 10.0 mi SW 18.4 mph - N/A   Mostly Cloudy
9:52 PM 64.9 °F 45.0 °F 48% 29.68 in 10.0 mi SSW 19.6 mph - N/A   Overcast
10:52 PM 64.0 °F 44.1 °F 48% 29.70 in 10.0 mi SSW 17.3 mph 31.1 mph N/A   Mostly Cloudy
11:52 PM 64.0 °F 44.1 °F 48% 29.72 in 10.0 mi SW 15.0 mph - N/A   Partly Cloudy